Overview Statistics Trail Chart Weather Telemetry Raw packets
 

This is the latest recevied weather packets stored in our database for station/object W6MAF. If no packets are shown the sender has not sent any weather packets the latest 10 day(s).

<< 90 91 92 93 94 95 96 >>
Time Temp. Humidity Pressure Rain* Wind** Luminosity Snow
1788011134 21.11° C 38% - 0 mm 3.58 m/s, 193° - -
1788010837 21.11° C 38% - 0 mm 2.24 m/s, 204° - -
1788010539 21.11° C 38% - 0 mm 3.58 m/s, 212° - -
1788010241 21.11° C 38% - 0 mm 4.02 m/s, 226° - -
1788009943 21.67° C 38% - 0 mm 4.47 m/s, 221° - -
1788009646 21.67° C 37% - 0 mm 3.58 m/s, 232° - -
1788009345 21.67° C 37% - 0 mm 4.92 m/s, 210° - -
1788009047 21.67° C 37% - 0 mm 4.92 m/s, 211° - -
1788008749 21.67° C 37% - 0 mm 4.47 m/s, 219° - -
1788008451 21.67° C 36% - 0 mm 5.81 m/s, 229° - -
1788008154 21.67° C 36% - 0 mm 4.92 m/s, 207° - -
1788007856 21.67° C 36% - 0 mm 5.36 m/s, 218° - -
1788007556 21.67° C 36% - 0 mm 4.92 m/s, 218° - -
1788007258 21.67° C 36% - 0 mm 5.36 m/s, 222° - -
1788006662 22.22° C 36% - 0 mm 4.92 m/s, 218° - -
1788006364 22.22° C 36% - 0 mm 4.47 m/s, 219° - -
1788006067 22.22° C 36% - 0 mm 4.92 m/s, 219° - -
1788005766 22.22° C 36% - 0 mm 4.02 m/s, 226° - -
1788005468 22.22° C 36% - 0 mm 4.47 m/s, 203° - -
1788005170 22.22° C 36% - 0 mm 5.36 m/s, 204° - -
1788004877 22.22° C 36% - 0 mm 4.47 m/s, 221° - -
1788004575 22.22° C 36% - 0 mm 4.47 m/s, 235° - -
1788004315 22.22° C 36% - 0 mm 4.47 m/s, 219° - -
1788004277 22.22° C 36% - 0 mm 4.47 m/s, 219° - -
1788003976 22.22° C 36% - 0 mm 4.47 m/s, 203° - -

* Rain latest hour (hover to see other rain measurements)
** Current wind speed in m/s (hover to see current wind gust speed)